{"data":{"norad_id":68223,"epoch":"2026-09-19T09:11:21.314976Z","epoch_age_seconds":148779,"freshness":"FRESH","line1":"1 68223U 26053S   26262.38288559  .00016116  00000+0  50052-3 0  9992","line2":"2 68223  97.2840 136.1988 0002190  86.6277 273.5216 15.33438607 29903","mean_motion":15.33438607,"eccentricity":0.000219,"inclination_deg":97.284,"raan_deg":136.1988,"arg_perigee_deg":86.6277,"mean_anomaly_deg":273.5216,"bstar":0.00050052,"rev_number":2990,"period_min":93.906596157586,"perigee_km":464.06342549052,"apogee_km":467.0609657382,"semimajor_km":6843.6991956144,"source":"CELESTRAK","updated_at":"2026-09-20T09:00:43.836235Z"}}